This is the latest recevied weather packets stored in our database for station/object KC5DAQ-28. If no packets are shown the sender has not sent any weather packets the latest 10 day(s).
| Time | Temp. | Humidity | Pressure | Rain* | Wind** | Luminosity | Snow |
|---|---|---|---|---|---|---|---|
| 1787952963 | 31.67° C | 65% | 1008.8 hPa | 0 mm | - | 148 W/m² | - |
| 1787952905 | 31.67° C | 65% | 1008.7 hPa | 0 mm | - | 148 W/m² | - |
| 1787952843 | 31.67° C | 65% | 1008.6 hPa | 0 mm | - | 158 W/m² | - |
| 1787952784 | 31.67° C | 65% | 1008.6 hPa | 0 mm | - | 818 W/m² | - |
| 1787952723 | 31.67° C | 65% | 1008.5 hPa | 0 mm | - | 818 W/m² | - |
| 1787952663 | 31.67° C | 65% | 1008.4 hPa | 0 mm | - | 818 W/m² | - |
| 1787952580 | 31.67° C | 65% | 1008.4 hPa | 0 mm | - | 840 W/m² | - |
| 1787952515 | 31.67° C | 65% | 1008.4 hPa | 0 mm | - | 886 W/m² | - |
| 1787952455 | 31.67° C | 65% | 1008.4 hPa | 0 mm | - | 886 W/m² | - |
| 1787952392 | 31.67° C | 65% | 1008.3 hPa | 0 mm | - | 909 W/m² | - |
| 1787952331 | 31.67° C | 66% | 1008.2 hPa | 0 mm | - | 909 W/m² | - |
| 1787952272 | 31.67° C | 66% | 1008.3 hPa | 0 mm | - | 909 W/m² | - |
| 1787952213 | 31.67° C | 67% | 1008.4 hPa | 0 mm | - | 909 W/m² | - |
| 1787952153 | 31.67° C | 67% | 1008.4 hPa | 0 mm | - | 916 W/m² | - |
| 1787952092 | 31.67° C | 68% | 1008.4 hPa | 0 mm | - | 874 W/m² | - |
| 1787952032 | 31.67° C | 68% | 1008.4 hPa | 0 mm | - | 918 W/m² | - |
| 1787951972 | 31.67° C | 67% | 1008.4 hPa | 0 mm | - | 918 W/m² | - |
| 1787951913 | 31.67° C | 68% | 1008.5 hPa | 0 mm | - | 925 W/m² | - |
| 1787951853 | 31.67° C | 68% | 1008.5 hPa | 0 mm | - | 921 W/m² | - |
| 1787951791 | 31.67° C | 68% | 1008.7 hPa | 0 mm | - | 921 W/m² | - |
| 1787951732 | 31.67° C | 68% | 1008.8 hPa | 0 mm | - | 918 W/m² | - |
| 1787951671 | 31.67° C | 67% | 1008.9 hPa | 0 mm | - | 913 W/m² | - |
| 1787951612 | 31.67° C | 67% | 1009 hPa | 0 mm | - | 939 W/m² | - |
| 1787951553 | 31.67° C | 67% | 1009.1 hPa | 0 mm | - | 939 W/m² | - |
| 1787951493 | 31.67° C | 67% | 1009.2 hPa | 0 mm | - | 990 W/m² | - |
* Rain latest hour (hover to see other rain measurements)
** Current wind speed in m/s (hover to see current wind gust speed)